CAPE
148 137 100 53 187 241 435 657 914 1115 1064 1105 870 476 611 598 310 515 868 584 750 714 695 595 502 277 79 0 9 0 82 131 165
0 15 18 24 11 83 118 439 1140 976 904 1207 963 436 493 473 35 327 502 273 549 689 752 791 589 477 210 0 88 42 102 147 161
0 0 0 0 0 0 0 170 745 1108 876 1389 937 523 328 403 95 67 168 48 426 598 550 542 686 522 430 60 53 89 24 240 286
0 0 0 0 0 0 0 4 353 702 971 1230 993 564 234 107 166 189 209 406 709 642 547 426 537 694 495 314 4 23 0 137 373
0 0 0 0 0 0 0 0 2 75 335 1145 794 425 254 1 101 52 69 82 298 835 772 701 647 592 828 642 186 16 1 53 350
0 0 0 0 0 0 0 0 0 0 0 321 408 200 159 374 210 34 1 8 0 173 247 371 708 696 594 632 678 51 26 38 34
0 0 0 0 0 0 0 0 0 0 0 0 191 0 0 68 190 9 0 0 0 0 0 19 229 507 537 448 502 363 28 21 2
0 0 0 0 0 0 0 0 0 0 0 0 0 0 0 0 0 11 0 0 0 0 0 0 11 240 189 315 619 626 216 0 11
540 278 11 0 0 0 0 0 0 0 0 0 0 0 0 0 0 0 0 0 0 0 0 0 0 101 56 135 351 610 532 265 49
213 198 272 221 0 0 0 0 0 0 0 0 0 0 0 0 0 0 0 0 0 0 0 0 0 0 1 0 56 450 599 496 461
0 0 29 60 97 59 2 0 0 0 0 0 0 0 0 0 0 0 0 0 0 0 0 0 0 0 2 0 0 13 146 243 268
0 0 0 0 0 0 0 0 0 0 0 0 0 0 0 0 0 0 0 0 0 0 0 0 0 0 2 3 0 0 0 1 51
0 0 0 0 0 0 0 0 0 0 0 0 0 0 0 0 0 0 0 0 0 0 0 0 0 0 0 5 0 0 0 0 0
0 0 0 0 0 0 0 0 0 0 0 0 0 0 0 0 0 0 0 0 0 0 0 0 0 0 0 0 0 0 0 0 0
0 0 0 0 0 0 0 0 0 0 0 0 0 0 0 0 0 0 0 0 0 0 0 0 0 0 0 0 0 0 0 0 0
0 0 0 0 0 0 0 0 0 0 0 0 3 0 0 0 0 0 0 0 0 0 0 0 0 0 0 0 0 0 0 0 0
0 0 0 0 0 0 0 0 0 0 1 0 1 2 0 0 0 0 0 0 0 0 0 0 0 0 0 0 0 0 0 0 0
0 0 0 0 0 0 0 0 0 0 0 13 0 6 0 0 0 0 0 0 0 0 0 0 0 0 0 0 0 0 0 0 0
0 0 0 0 0 0 0 0 0 0 0 3 26 3 1 1 0 0 0 0 0 0 0 0 0 0 0 0 0 0 0 0 0
0 0 0 0 0 0 0 0 0 0 0 0 0 29 11 0 8 1 0 0 0 0 0 0 0 0 0 0 0 0 0 0 0
CIN
-228 -234 -268 -321 -221 -193 -107 -27 -6 -3 -5 -3 -14 -36 -24 -17 -43 -25 -14 -19 -6 -2 -2 -1 -7 -43 -169 0 -261 -6 -145 -108 -69
0 -288 -396 -397 -451 -306 -278 -128 0 -1 -9 -4 -17 -59 -37 -38 -192 -81 -47 -87 -25 -3 0 0 -7 -14 -72 0 -162 -248 -181 -126 -83
0 0 0 0 0 0 0 -253 -39 0 -7 0 -13 -37 -87 -52 -121 -81 -125 -211 -61 -19 -20 -16 -2 -14 -22 -186 -212 -175 -296 -53 -17
0 0 0 0 0 0 0 -71 -169 -59 -8 0 -8 -47 -146 -196 -141 -173 -118 -68 -11 -23 -40 -55 -36 -9 -17 -51 -118 -270 0 -102 -3
0 0 0 0 0 0 0 0 -41 -264 -162 -1 -23 -103 -145 -13 -172 -238 -220 -199 -98 -2 -10 -18 -23 -32 -2 -4 -98 -266 -13 -193 -11
0 0 0 0 0 0 0 0 0 0 0 -142 -112 -180 -192 -89 -136 -275 -51 -176 0 -150 -115 -70 -15 -15 -26 -17 -6 -202 -232 -207 -217
0 0 0 0 0 0 0 0 0 0 0 0 -163 0 0 -217 -132 -222 -4 0 0 0 0 -121 -112 -28 -25 -41 -28 -56 -230 -243 -273
-1 0 0 0 0 0 0 0 0 0 0 0 0 0 0 0 0 -262 0 0 0 0 0 0 -121 -96 -120 -61 -16 -12 -93 0 -245
-38 -56 -15 0 0 0 0 0 0 0 0 0 0 0 0 0 0 0 0 0 0 0 0 0 0 -173 -208 -144 -46 -12 -22 -67 -193
-122 -112 -66 -50 0 0 0 0 0 0 0 0 0 0 0 0 0 0 0 0 0 0 0 0 0 0 0 0 -185 -20 -10 -29 -29
0 0 -114 -165 -126 -157 -28 0 0 0 0 0 0 0 0 0 0 0 0 0 0 0 0 0 0 0 0 0 0 -61 -104 -71 -60
0 0 0 0 -6 0 -5 0 0 0 0 0 0 0 0 0 0 0 0 0 0 0 0 0 0 0 0 0 0 0 0 -9 -137
0 0 0 0 0 0 0 0 0 0 0 0 0 0 0 0 0 0 0 0 0 0 0 0 0 0 0 0 0 0 0 0 0
0 0 0 0 0 0 0 0 0 0 0 0 0 0 0 0 0 0 0 0 0 0 0 0 0 0 0 0 0 0 0 0 0
0 0 0 0 0 0 0 0 0 0 0 0 0 0 0 0 0 0 0 0 0 0 0 0 0 0 0 0 0 0 0 0 0
0 0 0 0 0 0 0 0 0 0 0 0 -8 0 0 0 0 0 0 0 0 0 0 0 0 0 0 0 0 0 0 0 0
0 0 0 0 0 0 0 0 0 0 -2 0 0 -2 0 0 0 0 0 0 0 0 0 0 0 0 0 0 0 0 0 0 0
0 0 0 0 0 0 0 0 0 0 0 -11 0 -3 0 0 0 0 0 0 0 0 0 0 0 0 0 0 0 0 0 0 0
0 0 0 0 0 0 0 0 0 0 0 -14 -15 -8 -3 -10 -7 0 0 0 0 0 0 0 0 0 0 0 0 0 0 0 0
0 0 0 0 0 0 0 0 0 0 0 0 0 -10 -15 0 -11 -5 0 0 0 0 0 0 0 0 0 0 0 0 0 0 0
Wind_Speed
19 19 19 19 19 18 18 19 18 18 16 14 14 14 15 18 18 17 17 17 17 18 19 19 19 20 20 21 22 22 22 22 22
18 18 19 19 18 18 18 18 18 15 15 13 12 12 13 16 15 16 16 16 16 16 17 17 17 17 18 19 19 19 20 20 21
18 18 18 18 18 18 18 17 17 15 14 12 12 11 13 15 14 14 15 15 14 14 14 15 15 15 16 17 17 17 18 19 20
16 16 17 17 18 18 18 16 16 16 15 11 11 11 12 15 16 14 15 15 16 13 13 13 13 13 13 14 15 15 15 16 17
12 13 13 15 17 18 18 17 16 16 15 12 12 12 13 12 16 14 12 13 15 15 15 14 12 12 11 11 12 12 13 14 14
8 11 12 15 16 16 16 16 15 15 15 13 12 12 12 12 13 11 9 11 13 13 14 14 14 13 12 10 8 10 10 11 11
13 14 13 15 15 15 15 15 15 13 13 12 12 14 13 12 16 12 11 11 11 12 13 13 13 13 13 14 8 7 8 9 9
15 13 13 14 14 16 15 15 15 14 12 15 12 13 13 14 14 12 12 13 13 12 13 13 13 12 12 14 12 5 6 7 7
25 27 21 15 16 17 17 15 15 15 19 21 21 20 19 17 18 11 11 13 13 13 13 13 13 12 12 12 12 7 3 4 5
30 30 30 28 23 21 23 23 21 21 19 20 19 22 22 19 19 15 14 14 15 15 15 14 12 12 12 12 11 10 8 5 3
29 31 31 30 29 31 31 29 25 25 24 22 22 23 25 25 22 17 17 17 18 17 17 16 14 13 12 11 11 10 10 10 11
29 29 30 30 32 33 33 33 33 32 29 27 27 25 23 25 25 21 19 20 20 20 19 18 18 16 13 12 12 11 11 11 10
31 32 32 30 28 31 34 36 37 36 34 34 31 29 29 25 26 24 22 21 22 21 20 20 19 19 17 14 14 13 12 11 11
32 32 33 34 32 30 31 32 33 36 38 38 35 34 32 29 26 27 24 23 22 22 21 21 21 20 20 18 16 15 14 13 13
33 34 33 33 34 34 31 31 32 34 35 39 40 37 35 34 31 27 27 25 23 23 23 23 23 22 21 20 18 17 17 15 15
36 37 36 35 35 36 35 35 35 34 34 40 41 40 40 39 35 32 30 29 26 24 25 24 23 24 23 22 21 19 18 18 16
36 37 38 36 36 36 37 38 39 37 34 37 40 43 41 40 39 37 34 32 30 28 26 25 25 25 25 24 23 22 19 18 18
38 37 37 38 37 38 37 37 37 40 36 32 35 39 42 41 36 38 38 34 32 30 28 26 26 25 25 25 24 23 22 19 19
40 39 38 38 37 38 36 36 36 37 40 35 33 34 37 43 43 38 35 37 37 32 31 29 27 26 25 25 25 25 24 23 20
39 39 39 39 39 38 37 37 37 37 40 41 39 38 36 36 43 51 48 41 35 34 32 30 30 28 27 26 26 25 25 25 24
Wind_Direction
18 20 20 23 23 25 21 19 18 21 34 44 46 50 47 33 34 34 38 38 34 31 31 34 34 28 26 37 38 43 37 36 41
7 9 10 11 13 14 11 11 7 23 24 43 43 43 37 22 31 35 31 28 28 26 27 34 35 34 31 29 36 35 36 36 51
358 359 1 3 4 3 1 4 3 14 18 36 35 32 20 9 18 25 19 21 25 26 23 20 27 35 39 36 38 35 35 36 54
359 358 357 358 357 357 357 359 359 359 1 21 18 13 10 4 3 16 11 18 12 18 20 24 27 30 33 37 40 43 39 33 42
6 2 2 358 352 349 348 347 349 348 349 360 0 356 353 353 349 360 13 13 6 6 9 11 26 28 37 45 41 45 49 43 42
16 5 4 354 349 348 346 343 341 338 338 340 344 342 339 340 343 355 5 6 3 359 356 357 5 11 14 21 60 62 58 48 43
14 359 351 347 344 341 339 339 336 332 329 328 327 330 326 323 322 343 345 348 351 349 345 345 349 353 353 351 27 86 72 62 52
359 359 356 352 349 341 336 333 332 329 326 323 318 318 322 317 316 313 320 328 333 333 334 336 336 340 340 338 353 70 68 63 63
334 330 341 343 340 337 334 332 327 321 317 314 311 311 309 311 308 296 306 311 314 316 320 323 327 330 330 331 334 352 36 44 52
321 321 322 323 329 328 325 322 320 318 315 313 308 305 304 302 303 300 298 303 305 304 305 310 314 318 321 323 325 330 334 336 358
323 320 317 316 318 317 317 315 314 312 311 308 306 303 302 300 299 295 293 294 298 296 294 297 301 304 308 311 312 313 313 317 315
332 328 322 317 313 310 310 309 309 307 307 305 303 302 298 295 295 291 288 289 290 290 288 288 291 292 294 298 300 302 304 300 304
331 327 326 324 321 317 310 305 302 302 302 299 299 297 295 292 290 290 286 285 285 285 281 281 284 285 285 286 289 290 292 294 290
329 326 323 321 321 318 317 314 308 302 298 298 296 292 292 290 286 286 284 281 282 282 279 277 277 279 280 279 282 283 283 285 285
326 325 323 320 318 317 315 312 311 306 303 299 296 292 292 286 284 281 283 279 278 279 278 276 275 274 275 275 276 278 278 278 279
323 321 320 319 316 314 312 311 308 306 307 301 295 293 287 288 283 278 279 279 274 275 275 275 273 272 271 271 271 273 274 274 275
320 319 317 316 314 312 311 308 306 304 303 300 298 293 289 284 282 282 275 274 275 271 271 272 272 271 270 269 268 268 269 270 271
317 316 314 314 313 310 310 309 306 304 302 297 296 293 288 291 287 279 275 272 270 270 269 269 269 270 269 267 265 265 266 266 267
317 315 313 312 310 307 307 307 305 305 302 300 292 290 287 285 286 282 284 283 271 268 266 267 268 268 268 265 264 262 261 263 262
317 316 313 310 309 306 304 304 303 301 298 297 295 291 287 286 280 277 276 280 282 276 268 264 265 265 266 265 263 261 260 259 261